This demonstration page uses our WeatherBlox Daily Observations layout. Learn more.

Left ArrowRight Arrow

Hourly Observations for March 10, 2021

Temp ( °F °C ) Dew Point ( °F °C ) Humidity (%) Winds ( mph kmh ) Pressure ( in mb ) Visibility ( mi km ) Precip ( " mm )
12:54 am 00:54 Mostly Cloudy 63 17.2 51 10.6 65 65 S 12 19 29.67 1005 10 16 N/A
1:54 am 01:54 Cloudy 64 17.8 51 10.6 63 63 S 20 31 29.63 1003 10 16 N/A
2:54 am 02:54 Cloudy 64 17.8 51 10.6 63 63 S 15 24 29.62 1003 10 16 N/A
3:54 am 03:54 Cloudy 63 17.2 52 11.1 68 68 S 16 26 29.58 1002 10 16 N/A
4:54 am 04:54 Partly Cloudy 61 16.1 52 11.1 72 72 S 17 28 29.56 1001 10 16 N/A
5:54 am 05:54 Mostly Cloudy 62 16.7 52 11.1 70 70 S 23 37 29.55 1001 10 16 N/A
6:54 am 06:54 Mostly Sunny 61 16.1 52 11.1 72 72 S 20 31 29.53 1000 10 16 N/A
7:54 am 07:54 Mostly Sunny 63 17.2 52 11.1 68 68 S 25 41 29.51 999 10 16 N/A
8:54 am 08:54 Partly Cloudy 65 18.3 52 11.1 63 63 S 31 50 29.49 999 10 16 N/A
9:54 am 09:54 Partly Cloudy 68 20 51 10.6 55 55 S 32 52 29.47 998 10 16 N/A
10:54 am 10:54 Sunny 71 21.7 46 7.8 41 41 SSW 36 57 29.46 998 10 16 N/A
11:54 am 11:54 Sunny 74 23.3 37 2.8 26 26 SSW 36 57 29.47 998 10 16 N/A
12:54 pm 12:54 Sunny 73 22.8 33 0.6 23 23 WSW 33 54 29.49 999 10 16 N/A
1:54 pm 13:54 Sunny 68 20 38 3.3 33 33 W 31 50 29.53 1000 10 16 N/A
2:54 pm 14:54 Sunny 61 16.1 39 3.9 44 44 W 32 52 29.59 1002 10 16 N/A
3:54 pm 15:54 Sunny 56 13.3 36 2.2 47 47 W 30 48 29.66 1005 10 16 N/A
4:54 pm 16:54 Mostly Cloudy 51 10.6 33 0.6 50 50 W 30 48 29.74 1007 10 16 N/A
5:54 pm 17:54 Mostly Cloudy 49 9.4 32 undefined 52 52 W 25 41 29.79 1009 10 16 N/A
6:54 pm 18:54 Mostly Clear 46 7.8 31 -0.6 56 56 WNW 21 33 29.83 1010 10 16 N/A
7:54 pm 19:54 Clear 43 6.1 29 -1.7 58 58 WNW 20 31 29.88 1012 10 16 N/A
8:54 pm 20:54 Clear 40 4.4 28 -2.2 63 63 NW 14 22 29.90 1012 10 16 N/A
9:54 pm 21:54 Clear 38 3.3 28 -2.2 68 68 NW 14 22 29.94 1014 10 16 N/A
10:54 pm 22:54 Clear 37 2.8 27 -2.8 67 67 NW 13 20 29.97 1015 10 16 N/A
11:54 pm 23:54 Clear 36 2.2 27 -2.8 70 70 NW 16 26 29.98 1015 10 16 N/A

Powered by AerisWeather